Location: Cran-Gévrier
(45.9039°N, 6.1012°E)
Time: 04:29:34
(UTC+00:00)

Cosmos 1626 Rocket - Pass Details

Date: 09 February 2023
Orbit: 602 x 629 km, 82.5° (Epoch: 29 March)

Event Time Altitude Azimuth Distance (km) Brightness Sun altitude
Rises 17:38:41 0° 164° (SSE) 2,843 6.9 -8.5°
Reaches altitude 10° 17:41:01 10° 155° (SSE) 1,948 6.0 -8.9°
Maximum altitude 17:44:54 34° 91° (E) 1,008 4.1 -9.6°
Drops below altitude 10° 17:48:51 10° 26° (NNE) 1,974 5.8 -10.3°
Sets 17:51:13 0° 18° (NNE) 2,889 6.7 -10.7°
